Location: Foulognes
(49.1413°N, 0.8183°W)
Time: 01:10:44
(UTC+00:00)

DMSP B5D1-3 - Pass Details

Date: 21 October 2019
Orbit: 768 x 780 km, 98.5° (Epoch: 14 November)

Event Time Altitude Azimuth Distance (km) Brightness Sun altitude
Rises 18:57:42 0° 14° (NNE) 3,262 7.7 -19.5°
Reaches altitude 10° 19:00:01 10° 15° (NNE) 2,333 6.9 -19.9°
Maximum altitude 19:05:10 89° 101° (ESE) 784 4.4 -20.7°
Drops below altitude 10° 19:10:19 10° 196° (SSW) 2,323 7.1 -21.6°
Sets 19:12:37 0° 197° (SSW) 3,248 7.8 -22.0°
